Overview Statistics Trail Chart Weather Telemetry Raw packets
 

This is the latest recevied weather packets stored in our database for station/object KC5DAQ-26. If no packets are shown the sender has not sent any weather packets the latest 10 day(s).

<< 468 469 470 471 472 473 474 >>
Time Temp. Humidity Pressure Rain* Wind** Luminosity Snow
1787936152 32.78° C 69% 1020.6 hPa 0 mm - 856 W/m² -
1787936091 32.78° C 68% 1020.6 hPa 0 mm - 858 W/m² -
1787936030 32.78° C 69% 1020.5 hPa 0 mm - 856 W/m² -
1787935967 32.78° C 68% 1020.6 hPa 0 mm - 853 W/m² -
1787935907 32.78° C 69% 1020.5 hPa 0 mm - 849 W/m² -
1787935846 32.78° C 73% 1020.5 hPa 0 mm - 846 W/m² -
1787935784 32.78° C 72% 1020.4 hPa 0 mm - 848 W/m² -
1787935722 32.78° C 71% 1020.4 hPa 0 mm - 848 W/m² -
1787935661 32.22° C 71% 1020.4 hPa 0 mm - 844 W/m² -
1787935599 32.22° C 70% 1020.5 hPa 0 mm - 839 W/m² -
1787935535 32.78° C 71% 1020.4 hPa 0 mm - 837 W/m² -
1787935472 32.22° C 71% 1020.5 hPa 0 mm - 724 W/m² -
1787935412 32.22° C 71% 1020.4 hPa 0 mm - 434 W/m² -
1787935351 32.22° C 70% 1020.4 hPa 0 mm - 167 W/m² -
1787935292 32.22° C 70% 1020.5 hPa 0 mm - 106 W/m² -
1787935233 32.22° C 70% 1020.5 hPa 0 mm - 721 W/m² -
1787935171 32.22° C 70% 1020.4 hPa 0 mm - 721 W/m² -
1787935112 32.22° C 74% 1020.5 hPa 0 mm - 826 W/m² -
1787935052 32.22° C 73% 1020.5 hPa 0 mm - 821 W/m² -
1787934991 32.22° C 75% 1020.5 hPa 0 mm - 814 W/m² -
1787934933 32.22° C 74% 1020.5 hPa 0 mm - 816 W/m² -
1787934873 32.22° C 72% 1020.5 hPa 0 mm - 253 W/m² -
1787934812 32.22° C 74% 1020.6 hPa 0 mm - 668 W/m² -
1787934751 32.22° C 72% 1020.5 hPa 0 mm - 731 W/m² -
1787934692 32.22° C 72% 1020.5 hPa 0 mm - 805 W/m² -

* Rain latest hour (hover to see other rain measurements)
** Current wind speed in m/s (hover to see current wind gust speed)